Location: Richmond
(37.5540°N, 77.4610°W)
Time: 05:08:18
(UTC-04:00)

ISS - Visible Passes

Search period start: 27 April 2017 00:00
Search period end: 07 May 2017 00:00
Orbit: 401 x 409 km, 51.6° (Epoch: 28 April)

Date Brightness Start Highest point End Pass type
(mag) Time Alt. Az. Time Alt. Az. Time Alt. Az.
04 May -1.9 05:01:47 11° S 05:04:13 24° SE 05:06:54 10° ENE visible
05 May -1.2 04:11:53 12° SE 04:12:15 12° SE 04:13:36 10° ESE visible
06 May -3.7 04:54:34 26° SW 04:56:12 66° SE 04:59:28 10° NE visible
